Location: Radomski Observatory
(40.2854°N, 79.5145°W)
Time: 22:42:43
(UTC-05:00)

Amateur Radio Satellites - All Passes

Search period start: 21 January 2017 22:12
Search period end: 22 January 2017 22:12
Location: Radomski Observatory, 40.2854°N, 79.5145°W

Satellite Date Start Highest point End Downlink Frequencies (MHz)
Time Altitude Azimuth
ISS 21 Jan 22:27:04 22:30:14 51° 327° (NNW) 22:33:26 145.825
CUBEBUG 1 21 Jan 22:27:16 22:30:46 24° 68° (ENE) 22:34:16 437.445
JAS-2 21 Jan 22:31:07 22:37:46 36° 96° (E) 22:44:46 435.910
AISAT 21 Jan 22:47:30 22:51:10 26° 68° (ENE) 22:54:51 437.250
UNISAT 6 21 Jan 22:58:28 23:02:47 50° 287° (WNW) 23:07:10 437.425
POPSAT HIP 1 21 Jan 22:59:55 23:02:14 14° 92° (E) 23:04:34 437.405
BY70-1 21 Jan 23:03:45 23:06:21 26° 264° (W) 23:09:08 436.1900
DUCHIFAT 1 21 Jan 23:08:37 23:11:09 15° 93° (E) 23:13:40 145.980
TIGRISAT 21 Jan 23:11:28 23:15:37 39° 288° (WNW) 23:19:49 435.000
NANOSAT C BR1 21 Jan 23:14:29 23:17:36 20° 94° (E) 23:20:44 145.865
ESTCUBE 1 21 Jan 23:15:17 23:19:45 61° 259° (W) 23:24:17 437.505/2401.250
VELOX 1 21 Jan 23:20:00 23:24:20 54° 73° (ENE) 23:28:41 145.980
50 SAT 21 Jan 23:21:58 23:25:18 37° 72° (ENE) 23:28:38 437.505
AO-85 21 Jan 23:27:25 23:30:44 27° 246° (WSW) 23:34:03 145.980
ANTELSAT 21 Jan 23:27:29 23:31:10 26° 291° (WNW) 23:34:55 437.575/2403.000
RS-15 21 Jan 23:35:53 23:47:40 78° 117° (ESE) 00:00:00 29.354- 29.394
PCSat 21 Jan 23:36:27 23:40:48 25° 107° (ESE) 23:45:09 145.827
SPROUT 21 Jan 23:37:16 23:41:27 60° 74° (ENE) 23:45:39 437.525
BUGSAT 1 21 Jan 23:38:21 23:39:14 11° 91° (E) 23:40:07 437.445
UKube-1 21 Jan 23:43:25 23:47:17 34° 70° (ENE) 23:51:12 .
BEESAT 3 21 Jan 23:45:37 23:48:11 16° 44° (NE) 23:50:43 437.485
DX 1 21 Jan 23:47:02 23:51:16 51° 73° (ENE) 23:55:31 434.975-435.025
CUBEBUG 1 22 Jan 00:02:59 00:06:53 31° 263° (W) 00:10:48 437.445
ISS 22 Jan 00:05:24 00:07:19 14° 346° (NNW) 00:09:13 145.825
QB50P1 22 Jan 00:06:57 00:11:11 88° 95° (E) 00:15:25 145.935-145.965
POLYITAN 1 22 Jan 00:11:37 00:15:52 81° 284° (WNW) 00:20:07 437.675
QB50P2 22 Jan 00:12:57 00:17:11 73° 284° (WNW) 00:21:24 145.880/145.840
JAS-2 22 Jan 00:15:55 00:22:47 48° 291° (WNW) 00:30:08 435.910
Oscar 19 22 Jan 00:23:25 00:24:18 10° 88° (E) 00:25:12 437.125/150
AISAT 22 Jan 00:23:41 00:27:31 28° 264° (W) 00:31:23 437.250
YUBILEINY 22 Jan 00:28:41 00:36:41 36° 72° (ENE) 00:44:33 435.215
BEESAT 2 22 Jan 00:33:25 00:36:33 21° 47° (NE) 00:39:41 435.950
POPSAT HIP 1 22 Jan 00:34:12 00:38:14 45° 287° (WNW) 00:42:17 437.405
DUCHIFAT 1 22 Jan 00:43:02 00:47:00 42° 288° (WNW) 00:50:58 145.980
Cosmos 2504 22 Jan 00:44:45 00:50:01 21° 66° (ENE) 00:55:09 435.465 / 435.565
PHONESAT 2.4 22 Jan 00:49:09 00:50:37 16° 154° (SSE) 00:52:06 2401.200-2431.200
NANOSAT C BR1 22 Jan 00:49:37 00:53:22 32° 290° (WNW) 00:57:09 145.865
Gurwin Techsat 1B 22 Jan 00:50:27 00:51:06 10° 88° (E) 00:51:46 435.225
AIST 1 22 Jan 00:51:19 00:55:32 56° 80° (E) 00:59:42
BEESAT 22 Jan 00:51:40 00:53:51 13° 61° (ENE) 00:56:03 436.000
SWISSCUBE 22 Jan 00:52:53 00:55:35 15° 62° (ENE) 00:58:18 437.505
50 SAT 22 Jan 00:57:09 00:58:40 12° 268° (W) 01:00:10 437.505
VELOX 1 22 Jan 00:58:55 01:01:06 13° 269° (W) 01:03:17 145.980
TISAT 1 22 Jan 00:59:32 01:03:42 72° 74° (ENE) 01:07:51 437.305
BUGSAT 1 22 Jan 01:10:57 01:14:55 56° 286° (WNW) 01:18:54 437.445
SPROUT 22 Jan 01:16:34 01:17:45 11° 270° (W) 01:18:55 437.525
Cosmos 2491 22 Jan 01:17:48 01:25:33 38° 86° (E) 01:33:19 435.465 / 435.565
PCSat 22 Jan 01:18:44 01:23:54 45° 305° (NW) 01:29:07 145.827
UKube-1 22 Jan 01:20:09 01:23:23 20° 266° (W) 01:26:38 .
BEESAT 3 22 Jan 01:22:11 01:26:06 54° 242° (WSW) 01:29:59 437.485
DX 1 22 Jan 01:25:29 01:27:43 14° 268° (W) 01:29:59 434.975-435.025
ISS 22 Jan 01:43:33 01:44:52 12° 7° (N) 01:46:12 145.825
RS-15 22 Jan 01:50:33 02:01:28 38° 323° (NW) 02:12:45 29.354- 29.394
ITUPSAT 1 22 Jan 01:52:55 01:57:31 52° 72° (ENE) 02:02:09 437.325
Oscar 19 22 Jan 01:59:03 02:04:15 85° 285° (WNW) 02:09:23 437.125/150
MOZHAYETS 4 22 Jan 02:08:16 02:11:45 22° 67° (ENE) 02:15:17
BEESAT 2 22 Jan 02:10:42 02:14:28 38° 244° (WSW) 02:18:12 435.950
CUSAT 1 22 Jan 02:11:54 02:16:05 24° 82° (E) 02:21:06 437.405
PHONESAT 2.4 22 Jan 02:22:04 02:24:17 69° 170° (S) 02:26:31 2401.200-2431.200
YUBILEINY 22 Jan 02:25:18 02:33:38 49° 271° (W) 02:41:54 435.215
BEESAT 22 Jan 02:26:17 02:31:01 70° 257° (WSW) 02:35:48 436.000
Gurwin Techsat 1B 22 Jan 02:26:23 02:31:44 89° 289° (WNW) 02:37:02 435.225
SWISSCUBE 22 Jan 02:28:10 02:32:51 60° 258° (WSW) 02:37:35 437.505
AIST 1 22 Jan 02:31:31 02:32:33 11° 276° (W) 02:33:34
Cosmos 2504 22 Jan 02:36:51 02:44:08 68° 267° (W) 02:51:12 435.465 / 435.565
KKS-1 22 Jan 02:37:00 02:39:23 14° 63° (ENE) 02:41:46 437.445
M-CUBED/EXP-1 PRIME 22 Jan 02:44:10 02:47:59 31° 66° (ENE) 02:51:36 437.505
ITAMSAT 1 22 Jan 02:46:03 02:50:28 27° 96° (E) 02:54:52 435.822/435.867
AIST 2 22 Jan 02:46:36 02:48:48 14° 41° (NE) 02:50:59 435.215
CUBESAT XI-V 22 Jan 03:00:20 03:02:16 12° 62° (ENE) 03:04:12 437.345
Cosmos 2491 22 Jan 03:13:55 03:22:09 46° 285° (WNW) 03:30:29 435.465 / 435.565
AUBIESAT-1 22 Jan 03:18:55 03:23:07 61° 70° (ENE) 03:27:04 437.475
ISS 22 Jan 03:19:21 03:22:12 27° 26° (NNE) 03:25:02 145.825
DANDE 22 Jan 03:19:56 03:22:58 21° 83° (E) 03:26:41 436.750
STARS 22 Jan 03:24:25 03:27:37 20° 66° (ENE) 03:30:50 437.465
ITUPSAT 1 22 Jan 03:32:43 03:35:38 16° 268° (W) 03:38:33 437.325
Oscar 19 22 Jan 03:41:23 03:42:44 11° 302° (WNW) 03:44:04 437.125/150
MOZHAYETS 4 22 Jan 03:44:30 03:48:41 36° 263° (W) 03:52:56
AO-7 22 Jan 03:51:32 03:59:50 65° 104° (ESE) 04:08:04 29.400- 29.500
CUSAT 1 22 Jan 03:52:17 03:57:22 48° 287° (WNW) 04:03:54 437.405
PHONESAT 2.4 22 Jan 03:55:58 03:58:12 87° 354° (N) 04:00:26 2401.200-2431.200
Gurwin Techsat 1B 22 Jan 04:08:52 04:10:52 12° 301° (WNW) 04:12:51 435.225
RS-15 22 Jan 04:10:16 04:19:05 21° 357° (N) 04:27:55 29.354- 29.394
KKS-1 22 Jan 04:11:06 04:15:28 56° 259° (W) 04:19:51 437.445
M-CUBED/EXP-1 PRIME 22 Jan 04:18:58 04:22:25 23° 259° (W) 04:25:43 437.505
AIST 2 22 Jan 04:23:33 04:27:48 79° 241° (WSW) 04:32:02 435.215
ITAMSAT 1 22 Jan 04:25:13 04:29:56 36° 292° (WNW) 04:34:39 435.822/435.867
CUBESAT XI-V 22 Jan 04:34:19 04:39:00 73° 258° (WSW) 04:43:45 437.345
Cosmos 2499 22 Jan 04:55:10 04:56:44 11° 59° (ENE) 04:58:19 435.465 / 435.565
ISS 22 Jan 04:55:41 04:58:44 37° 223° (SW) 05:01:45 145.825
AUBIESAT-1 22 Jan 04:56:32 04:57:44 11° 263° (W) 04:58:55 437.475
STARS 22 Jan 04:59:42 05:03:44 36° 262° (W) 05:07:46 437.465
DANDE 22 Jan 05:01:41 05:05:18 31° 292° (WNW) 05:09:59 436.750
GOMX 1 22 Jan 05:09:04 05:12:23 21° 93° (E) 05:15:36 467.674
HORYU 2 22 Jan 05:12:24 05:16:13 27° 96° (E) 05:20:01 437.375
BRITE-PL 22 Jan 05:13:37 05:18:27 69° 100° (E) 05:22:52 437.365/2234.400
GONETS M04 22 Jan 05:17:16 05:22:56 18° 62° (ENE) 05:28:33
O/OREOS (USA 219) 22 Jan 05:23:29 05:27:06 25° 103° (ESE) 05:30:44 437.305
STRAND 1 22 Jan 05:27:58 05:30:43 15° 61° (ENE) 05:33:28 437.568
PHONESAT 2.4 22 Jan 05:30:00 05:32:00 28° 201° (SSW) 05:33:59 2401.200-2431.200
DOVE 4 22 Jan 05:39:11 05:41:49 16° 92° (E) 05:44:26 437.250
AO-7 22 Jan 05:45:06 05:52:02 30° 303° (WNW) 05:58:56 29.400- 29.500
CUTE-I 22 Jan 05:48:42 05:53:04 25° 95° (E) 05:57:25 437.470
SO-50 22 Jan 06:19:14 06:21:36 14° 108° (ESE) 06:23:59 436.795
RS-15 22 Jan 06:26:18 06:37:07 33° 32° (NNE) 06:47:40 29.354- 29.394
Cubesat XI-IV 22 Jan 06:31:51 06:37:09 63° 102° (ESE) 06:42:27 437.490
NOAA 15 22 Jan 06:34:08 06:39:27 69° 102° (ESE) 06:44:43 137.62
LilacSat-2 22 Jan 06:35:09 06:39:03 87° 285° (WNW) 06:42:55 437.200
Cosmos 2499 22 Jan 06:44:12 06:51:20 72° 81° (E) 06:58:23 435.465 / 435.565
GOMX 1 22 Jan 06:46:43 06:50:33 30° 291° (WNW) 06:54:13 467.674
HORYU 2 22 Jan 06:48:55 06:52:40 27° 292° (WNW) 06:56:26 437.375
NOAA 18 22 Jan 06:51:24 06:56:42 50° 100° (E) 07:01:58 137.9125
CINEMA 3 22 Jan 06:53:26 06:56:56 25° 96° (E) 07:00:30 145.822/145.860
BRITE-PL 22 Jan 06:54:11 06:56:11 13° 300° (WNW) 06:58:08 437.365/2234.400
O/OREOS (USA 219) 22 Jan 07:02:25 07:06:21 30° 299° (WNW) 07:10:19 437.305
STRAND 1 22 Jan 07:04:13 07:09:17 70° 257° (WSW) 07:14:23 437.568
GONETS M04 22 Jan 07:12:11 07:21:05 87° 83° (E) 07:29:58
DOVE 4 22 Jan 07:15:51 07:19:42 37° 288° (WNW) 07:23:30 437.250
HO-68 22 Jan 07:16:21 07:22:46 34° 97° (E) 07:29:05 435.675
CUTE-I 22 Jan 07:28:15 07:33:12 40° 291° (WNW) 07:38:09 437.470
CUBEBUG 2 22 Jan 07:35:43 07:38:42 18° 93° (E) 07:41:44 437.445
CUTE 1.7 + AOD 2 22 Jan 07:40:24 07:44:34 47° 99° (E) 07:48:41 437.475
SO-50 22 Jan 07:56:50 08:01:32 67° 304° (WNW) 08:06:11 436.795
UWE-3 22 Jan 07:59:47 08:03:06 21° 94° (E) 08:06:28 435.000/436.395/437.385
CANX-2 22 Jan 08:09:59 08:14:17 67° 285° (WNW) 08:18:31 2200.000
Cubesat XI-IV 22 Jan 08:13:16 08:16:41 18° 298° (WNW) 08:20:07 437.490
ZACube-1 22 Jan 08:14:21 08:17:23 18° 93° (E) 08:20:25 437.345
NOAA 15 22 Jan 08:15:30 08:18:37 16° 299° (WNW) 08:21:44 137.62
SEEDS 22 Jan 08:16:54 08:21:10 83° 100° (E) 08:25:24 437.485
COMPASS 1 22 Jan 08:18:34 08:22:42 55° 100° (E) 08:26:49 437.405
UNISAT 6 22 Jan 08:22:57 08:24:38 12° 63° (ENE) 08:26:18 437.425
PCSat 22 Jan 08:24:14 08:28:21 21° 47° (NE) 08:32:27 145.827
AAUSAT CUBESAT 2 22 Jan 08:27:50 08:31:56 53° 100° (E) 08:36:00 437.432
CINEMA 3 22 Jan 08:30:29 08:34:01 26° 290° (WNW) 08:37:36 145.822/145.860
NOAA 18 22 Jan 08:32:52 08:36:59 22° 297° (WNW) 08:41:05 137.9125
TIGRISAT 22 Jan 08:34:47 08:37:15 15° 65° (ENE) 08:39:43 435.000
RS-15 22 Jan 08:39:07 08:51:33 88° 59° (ENE) 09:03:28 29.354- 29.394
Cosmos 2499 22 Jan 08:39:11 08:43:33 18° 280° (W) 08:47:55 435.465 / 435.565
Oscar 11 22 Jan 08:46:24 08:50:20 32° 96° (E) 08:54:14 145.826/435.025
JAS-2 22 Jan 08:47:56 08:49:25 11° 54° (NE) 08:50:56 435.910
ANTELSAT 22 Jan 08:49:30 08:52:51 23° 68° (ENE) 08:56:14 437.575/2403.000
PRISM 22 Jan 08:55:55 09:00:05 82° 254° (WSW) 09:04:17 437.425
HO-68 22 Jan 09:03:49 09:10:34 46° 294° (WNW) 09:17:18 435.675
GONETS M04 22 Jan 09:11:11 09:16:40 18° 282° (WNW) 09:22:09
CUBEBUG 2 22 Jan 09:11:22 09:15:27 40° 288° (WNW) 09:19:39 437.445
CUTE 1.7 + AOD 2 22 Jan 09:17:27 09:19:59 16° 295° (WNW) 09:22:31 437.475
FUNcube-1 22 Jan 09:25:06 09:29:32 83° 282° (WNW) 09:34:01 145.935
DELFI C3 22 Jan 09:27:34 09:31:05 29° 96° (E) 09:34:33 145.870
UWE-3 22 Jan 09:35:37 09:39:37 35° 289° (WNW) 09:43:42 435.000/436.395/437.385
SO-50 22 Jan 09:41:21 09:42:52 11° 323° (NW) 09:44:24 436.795
HUMSAT D 22 Jan 09:42:55 09:46:30 25° 95° (E) 09:50:04 437.325/437.525
ZACube-1 22 Jan 09:49:39 09:53:47 41° 288° (WNW) 09:57:59 437.345
POPSAT HIP 1 22 Jan 09:53:33 09:54:34 11° 62° (ENE) 09:55:35 437.405
COMPASS 1 22 Jan 09:55:50 09:57:45 13° 296° (WNW) 09:59:41 437.405
UNISAT 6 22 Jan 09:56:37 10:00:49 60° 259° (W) 10:05:03 437.425
DUCHIFAT 1 22 Jan 10:01:24 10:02:44 11° 63° (ENE) 10:04:05 145.980
AAUSAT CUBESAT 2 22 Jan 10:04:57 10:06:56 13° 296° (WNW) 10:08:54 437.432
PCSat 22 Jan 10:06:49 10:12:11 63° 245° (WSW) 10:17:31 145.827
NANOSAT C BR1 22 Jan 10:06:57 10:09:17 15° 65° (ENE) 10:11:36 145.865
TIGRISAT 22 Jan 10:09:28 10:13:33 46° 261° (W) 10:17:39 435.000
Oscar 11 22 Jan 10:22:54 10:26:16 22° 292° (WNW) 10:29:37 145.826/435.025
ANTELSAT 22 Jan 10:25:44 10:29:26 29° 264° (W) 10:33:09 437.575/2403.000
JAS-2 22 Jan 10:27:58 10:33:17 79° 74° (ENE) 10:39:14 435.910
RS-15 22 Jan 10:53:30 11:02:22 25° 260° (W) 11:11:02 29.354- 29.394
QB50P1 22 Jan 10:58:30 11:02:36 59° 75° (ENE) 11:06:44 145.935-145.965
DELFI C3 22 Jan 11:02:43 11:05:41 20° 292° (WNW) 11:08:37 145.870
POLYITAN 1 22 Jan 11:03:18 11:07:27 68° 75° (ENE) 11:11:37 437.675
QB50P2 22 Jan 11:04:36 11:08:47 76° 75° (ENE) 11:12:59 145.880/145.840
ESTCUBE 1 22 Jan 11:08:33 11:12:29 28° 96° (E) 11:16:22 437.505/2401.250
VELOX 1 22 Jan 11:13:44 11:14:10 10° 90° (E) 11:14:36 145.980
HUMSAT D 22 Jan 11:18:24 11:22:02 27° 290° (WNW) 11:25:39 437.325/437.525
POPSAT HIP 1 22 Jan 11:25:36 11:29:45 68° 259° (WSW) 11:33:57 437.405
SPROUT 22 Jan 11:26:22 11:27:03 10° 90° (E) 11:27:44 437.525
Cosmos 2491 22 Jan 11:29:12 11:34:47 18° 62° (ENE) 11:40:21 435.465 / 435.565
DUCHIFAT 1 22 Jan 11:33:45 11:37:52 63° 259° (W) 11:42:01 145.980
BY70-1 22 Jan 11:38:15 11:41:24 47° 286° (WNW) 11:44:19 436.1900
Oscar 19 22 Jan 11:38:24 11:41:39 17° 62° (ENE) 11:44:55 437.125/150
NANOSAT C BR1 22 Jan 11:40:34 11:44:36 47° 261° (W) 11:48:38 145.865
CUBEBUG 1 22 Jan 11:51:25 11:55:37 48° 99° (E) 11:59:46 437.445
BUGSAT 1 22 Jan 11:59:39 12:03:42 89° 83° (E) 12:07:45 437.445
Gurwin Techsat 1B 22 Jan 12:09:21 12:12:51 18° 62° (ENE) 12:16:21 435.225
AISAT 22 Jan 12:13:27 12:17:45 53° 100° (E) 12:22:01 437.250
JAS-2 22 Jan 12:17:18 12:19:18 12° 274° (W) 12:21:23 435.910
50 SAT 22 Jan 12:20:48 12:24:14 45° 99° (E) 12:27:37 437.505
QB50P1 22 Jan 12:37:41 12:38:44 11° 270° (W) 12:39:47 145.935-145.965
CUSAT 1 22 Jan 12:44:21 12:50:38 25° 65° (ENE) 12:56:30 437.405
ESTCUBE 1 22 Jan 12:45:23 12:49:10 27° 292° (WNW) 12:52:56 437.505/2401.250
TISAT 1 22 Jan 12:46:11 12:47:21 11° 91° (E) 12:48:31 437.305
VELOX 1 22 Jan 12:46:41 12:51:03 68° 286° (WNW) 12:55:24 145.980
SPROUT 22 Jan 12:59:09 13:03:22 64° 285° (WNW) 13:07:34 437.525
AO-7 22 Jan 13:00:58 13:06:21 19° 50° (NE) 13:11:44 29.400- 29.500
UKube-1 22 Jan 13:06:14 13:10:32 66° 102° (ESE) 13:14:47 .
DX 1 22 Jan 13:11:31 13:15:52 78° 284° (WNW) 13:20:10 434.975-435.025
Oscar 19 22 Jan 13:15:18 13:20:27 62° 259° (WSW) 13:25:37 437.125/150
AIST 1 22 Jan 13:19:58 13:23:56 34° 91° (E) 13:27:52
Cosmos 2504 22 Jan 13:23:10 13:28:48 20° 81° (E) 13:34:14 435.465 / 435.565
Cosmos 2491 22 Jan 13:24:07 13:32:57 87° 81° (E) 13:41:48 435.465 / 435.565
YUBILEINY 22 Jan 13:28:52 13:36:56 42° 87° (E) 13:45:02 435.215
CUBEBUG 1 22 Jan 13:28:57 13:31:28 15° 296° (WNW) 13:34:00 437.445
AO-85 22 Jan 13:39:56 13:44:41 85° 302° (WNW) 13:49:06 145.980
Gurwin Techsat 1B 22 Jan 13:47:04 13:52:17 60° 259° (W) 13:57:33 435.225
AISAT 22 Jan 13:51:23 13:53:45 14° 297° (WNW) 13:56:07 437.250
DANDE 22 Jan 13:54:50 14:01:48 32° 70° (ENE) 14:09:01 436.750
ITUPSAT 1 22 Jan 13:55:27 13:57:53 14° 91° (E) 14:00:19 437.325
50 SAT 22 Jan 13:56:02 13:57:01 11° 295° (WNW) 13:57:58 437.505
ITAMSAT 1 22 Jan 14:03:23 14:08:10 40° 69° (ENE) 14:12:59 435.822/435.867
TISAT 1 22 Jan 14:19:13 14:23:20 58° 286° (WNW) 14:27:26 437.305
CUSAT 1 22 Jan 14:25:21 14:33:20 73° 265° (W) 14:40:27 437.405
BEESAT 22 Jan 14:27:07 14:31:21 30° 97° (E) 14:35:32 436.000
SWISSCUBE 22 Jan 14:28:52 14:33:17 35° 98° (E) 14:37:39 437.505
UKube-1 22 Jan 14:44:28 14:45:59 12° 298° (WNW) 14:47:30 .
BRITE-PL 22 Jan 14:48:40 14:50:18 11° 59° (ENE) 14:51:55 437.365/2234.400
AO-7 22 Jan 14:49:31 14:57:52 81° 70° (ENE) 15:06:16 29.400- 29.500
SO-50 22 Jan 14:49:47 14:52:08 14° 39° (NE) 14:54:29 436.795
AIST 1 22 Jan 14:58:28 15:01:36 19° 287° (WNW) 15:04:44
BEESAT 3 22 Jan 15:11:59 15:15:13 25° 113° (ESE) 15:18:30 437.485
Cosmos 2504 22 Jan 15:12:34 15:21:16 82° 278° (W) 15:29:27 435.465 / 435.565
Cosmos 2491 22 Jan 15:23:08 15:28:34 18° 282° (WNW) 15:34:01 435.465 / 435.565
AO-85 22 Jan 15:23:46 15:25:40 12° 319° (NW) 15:27:32 145.980
YUBILEINY 22 Jan 15:25:27 15:33:40 42° 286° (WNW) 15:41:58 435.215
ITUPSAT 1 22 Jan 15:31:21 15:36:06 61° 287° (WNW) 15:40:50 437.325
O/OREOS (USA 219) 22 Jan 15:33:00 15:37:20 44° 64° (ENE) 15:41:39 437.305
DANDE 22 Jan 15:37:00 15:44:51 61° 266° (W) 15:52:58 436.750
MOZHAYETS 4 22 Jan 15:39:24 15:43:58 53° 100° (E) 15:48:30
ITAMSAT 1 22 Jan 15:43:38 15:47:44 24° 265° (W) 15:51:54 435.822/435.867
M-CUBED/EXP-1 PRIME 22 Jan 15:58:17 16:00:35 17° 100° (E) 16:02:51 437.505
BEESAT 2 22 Jan 16:01:21 16:05:00 38° 116° (ESE) 16:08:43 435.950
KKS-1 22 Jan 16:02:45 16:06:32 27° 96° (E) 16:10:19 437.445
BEESAT 22 Jan 16:04:57 16:09:01 28° 292° (WNW) 16:13:05 436.000
SWISSCUBE 22 Jan 16:07:00 16:10:52 25° 294° (WNW) 16:14:43 437.505
HORYU 2 22 Jan 16:10:05 16:13:38 24° 67° (ENE) 16:17:11 437.375
CUSAT 1 22 Jan 16:10:24 16:13:44 13° 283° (WNW) 16:16:57 437.405
GOMX 1 22 Jan 16:15:34 16:20:03 28° 69° (ENE) 16:24:21 467.674
Cubesat XI-IV 22 Jan 16:17:00 16:19:21 13° 59° (ENE) 16:21:41 437.490
NOAA 15 22 Jan 16:17:11 16:19:51 14° 60° (ENE) 16:22:30 137.62
BRITE-PL 22 Jan 16:22:10 16:27:51 76° 76° (ENE) 16:33:27 437.365/2234.400
SO-50 22 Jan 16:28:43 16:33:15 88° 238° (WSW) 16:37:42 436.795
CUBESAT XI-V 22 Jan 16:31:45 16:35:49 29° 96° (E) 16:39:50 437.345
AUBIESAT-1 22 Jan 16:32:13 16:35:22 39° 104° (ESE) 16:38:28 437.475
NOAA 18 22 Jan 16:40:28 16:42:49 13° 58° (ENE) 16:45:10 137.9125
DOVE 4 22 Jan 16:43:42 16:47:12 20° 67° (ENE) 16:50:35 437.250
AO-7 22 Jan 16:45:36 16:51:26 21° 268° (W) 16:57:20 29.400- 29.500
STARS 22 Jan 16:49:07 16:53:13 39° 99° (E) 16:57:19 437.465
BEESAT 3 22 Jan 16:49:24 16:52:45 27° 310° (NW) 16:56:09 437.485
CUTE-I 22 Jan 17:09:52 17:14:45 39° 69° (ENE) 17:19:40 437.470
Cosmos 2504 22 Jan 17:11:00 17:15:49 16° 297° (WNW) 17:20:31 435.465 / 435.565
O/OREOS (USA 219) 22 Jan 17:13:28 17:16:20 17° 260° (W) 17:19:13 437.305
LilacSat-2 22 Jan 17:16:26 17:19:58 39° 73° (ENE) 17:23:32 437.200
MOZHAYETS 4 22 Jan 17:17:52 17:20:40 16° 296° (WNW) 17:23:28
DANDE 22 Jan 17:24:09 17:26:11 11° 282° (WNW) 17:28:13 436.750
M-CUBED/EXP-1 PRIME 22 Jan 17:32:27 17:35:04 22° 296° (WNW) 17:37:37 437.505
KKS-1 22 Jan 17:39:19 17:43:00 26° 292° (WNW) 17:46:41 437.445
BEESAT 2 22 Jan 17:39:56 17:42:55 20° 313° (NW) 17:45:57 435.950
HO-68 22 Jan 17:45:16 17:50:53 25° 59° (ENE) 17:56:29 435.675
HORYU 2 22 Jan 17:46:11 17:50:02 30° 263° (W) 17:53:55 437.375
GOMX 1 22 Jan 17:53:01 17:57:57 36° 263° (W) 18:02:42 467.674
Cubesat XI-IV 22 Jan 17:53:21 17:58:40 85° 256° (WSW) 18:04:01 437.490
NOAA 15 22 Jan 17:53:37 17:58:55 79° 258° (WSW) 18:04:16 137.62
CINEMA 3 22 Jan 17:54:56 17:58:18 22° 68° (ENE) 18:01:35 145.822/145.860
BRITE-PL 22 Jan 18:03:43 18:06:46 15° 271° (W) 18:09:50 437.365/2234.400
AUBIESAT-1 22 Jan 18:08:29 18:09:26 11° 301° (WNW) 18:10:22 437.475
CUBESAT XI-V 22 Jan 18:09:08 18:13:06 28° 292° (WNW) 18:17:02 437.345
NOAA 18 22 Jan 18:17:09 18:22:40 90° 68° (ENE) 18:28:11 137.9125
GONETS M04 22 Jan 18:19:21 18:25:06 20° 78° (ENE) 18:30:51
DOVE 4 22 Jan 18:19:52 18:24:36 44° 261° (W) 18:29:07 437.250
AIST 2 22 Jan 18:21:02 18:24:18 23° 112° (ESE) 18:27:37 435.215
STARS 22 Jan 18:26:13 18:29:16 19° 294° (WNW) 18:32:19 437.465
CUTE 1.7 + AOD 2 22 Jan 18:32:30 18:36:14 31° 70° (ENE) 18:40:01 437.475
CUBEBUG 2 22 Jan 18:34:38 18:36:38 13° 65° (ENE) 18:38:38 437.445
CUTE-I 22 Jan 18:50:32 18:54:53 25° 265° (W) 18:59:15 437.470
LilacSat-2 22 Jan 18:52:38 18:54:26 13° 268° (W) 18:56:15 437.200
UWE-3 22 Jan 18:57:24 18:59:45 15° 65° (ENE) 19:02:07 435.000/436.395/437.385
CANX-2 22 Jan 19:01:41 19:05:55 79° 76° (ENE) 19:10:12 2200.000
SEEDS 22 Jan 19:07:39 19:11:44 51° 74° (ENE) 19:15:52 437.485
COMPASS 1 22 Jan 19:08:35 19:12:21 34° 71° (ENE) 19:16:10 437.405
ZACube-1 22 Jan 19:11:06 19:12:53 13° 64° (ENE) 19:14:42 437.345
STRAND 1 22 Jan 19:15:16 19:20:07 41° 98° (E) 19:24:58 437.568
AAUSAT CUBESAT 2 22 Jan 19:17:21 19:21:04 32° 71° (ENE) 19:24:49 437.432
Cosmos 2499 22 Jan 19:18:53 19:27:08 62° 92° (E) 19:34:47 435.465 / 435.565
HO-68 22 Jan 19:30:52 19:38:00 65° 257° (WSW) 19:45:11 435.675
CINEMA 3 22 Jan 19:31:24 19:35:17 30° 263° (W) 19:39:04 145.822/145.860
Oscar 11 22 Jan 19:40:54 19:44:20 24° 68° (ENE) 19:47:49 145.826/435.025
AIST 2 22 Jan 19:58:53 20:02:36 32° 309° (NW) 20:06:24 435.215
NOAA 18 22 Jan 20:02:42 20:04:00 11° 271° (W) 20:05:18 137.9125
CUBEBUG 2 22 Jan 20:08:47 20:12:50 50° 261° (W) 20:16:52 437.445
CUTE 1.7 + AOD 2 22 Jan 20:08:49 20:12:05 22° 266° (W) 20:15:24 437.475
GONETS M04 22 Jan 20:12:03 20:20:46 81° 278° (W) 20:29:35
DELFI C3 22 Jan 20:13:19 20:15:55 17° 67° (ENE) 20:18:33 145.870
FUNcube-1 22 Jan 20:19:55 20:24:01 69° 75° (ENE) 20:28:10 145.935
UWE-3 22 Jan 20:31:53 20:35:50 44° 261° (W) 20:39:49 435.000/436.395/437.385
HUMSAT D 22 Jan 20:34:25 20:37:01 17° 66° (ENE) 20:39:39 437.325/437.525
PRISM 22 Jan 20:39:26 20:41:30 14° 92° (E) 20:43:34 437.425
ZACube-1 22 Jan 20:44:39 20:48:41 54° 260° (W) 20:52:47 437.345
COMPASS 1 22 Jan 20:44:57 20:47:58 19° 267° (W) 20:51:01 437.405
SEEDS 22 Jan 20:45:45 20:47:42 13° 269° (W) 20:49:41 437.485
AAUSAT CUBESAT 2 22 Jan 20:53:30 20:56:34 20° 266° (W) 20:59:41 437.432
STRAND 1 22 Jan 20:54:59 20:59:02 24° 295° (WNW) 21:03:05 437.568
RS-15 22 Jan 20:58:44 21:02:06 12° 92° (E) 21:05:30 29.354- 29.394
Cosmos 2499 22 Jan 21:13:59 21:20:40 27° 290° (WNW) 21:27:03 435.465 / 435.565
Oscar 11 22 Jan 21:16:33 21:20:19 29° 264° (W) 21:24:07 145.826/435.025
ISS 22 Jan 21:34:45 21:38:00 84° 147° (SSE) 21:41:16 145.825
JAS-2 22 Jan 21:38:36 21:42:12 14° 87° (E) 21:45:52 435.910
DELFI C3 22 Jan 21:46:43 21:50:26 36° 262° (W) 21:54:10 145.870
UNISAT 6 22 Jan 21:48:37 21:52:30 28° 96° (E) 21:56:25 437.425
BY70-1 22 Jan 21:51:54 21:54:23 23° 70° (ENE) 21:57:01 436.1900
TIGRISAT 22 Jan 22:00:57 22:05:03 35° 97° (E) 22:09:14 435.000
